Location: Fort Frances
(48.6170°N, 93.4170°W)
Time: 21:03:43
(UTC-05:00)

Daily predictions for brighter satellites

Satellite Brightness Start Highest point End
(mag) Time Altitude Azimuth Time Altitude Azimuth Time Altitude Azimuth
Meteor 1-11 4.4 18:43:02 10° N 18:48:45 54° ENE 18:54:22 10° SSE
Cosmos 1408 Rocket 3.6 18:45:52 10° N 18:50:18 74° E 18:54:45 10° SSE
Cosmos 2218 Rocket 4.2 18:44:43 10° SSE 18:50:31 46° E 18:56:21 10° NNE
Cosmos 1470 3.1 18:46:35 10° SSW 18:50:33 74° W 18:54:34 10° N
Cosmos 1452 Rocket 4.2 18:46:06 10° N 18:50:53 33° NE 18:55:37 10° ESE
Meteor 2-15 Rocket 4.4 18:44:59 10° N 18:51:05 68° ENE 18:57:10 10° SSE
Aureole 1 Rocket 4.1 18:45:58 10° S 18:52:07 43° ESE 18:56:53 10° NE
EO 1 Del DPAF 3.7 18:48:43 10° NNE 18:52:22 39° E 18:55:59 10° S
Lacrosse 5 rocket 1.6 18:47:52 10° WSW 18:52:24 80° NW 18:56:43 10° NE
CZ-4 R/B 4.4 18:51:12 10° SSE 18:55:18 73° ENE 18:59:28 10° N
Cosmos 1328 3.7 18:51:42 10° N 18:55:42 71° E 18:59:39 10° SSE
ATLAS 5 CENTAUR R/B 3.8 18:52:15 10° WNW 18:56:18 24° NNW 19:00:40 10° NNE
Meteor 2-21 4.4 18:51:16 10° S 18:57:17 71° E 19:03:20 10° NNE
Cosmos 1727 Rocket 4.2 18:51:42 10° N 18:57:53 50° ENE 19:04:01 10° SSE
SJ-6B 4.4 18:56:39 10° E 18:58:47 15° ENE 19:00:56 10° NNE
Cosmos 2341 Rocket 4.1 18:52:51 10° S 18:59:07 87° W 19:05:31 10° N
Cosmos 2322 4.2 18:55:30 10° NNW 19:00:57 42° NE 19:06:21 10° ESE
Gbstr 26 Del rocket 3.6 19:00:13 10° WNW 19:04:53 63° N 19:10:30 11° E
MONITOR-E 4.1 19:03:26 10° SSE 19:06:29 64° ENE 19:09:34 10° N
Meteor 1-16 Rocket 4.1 19:02:29 10° S 19:07:43 67° E 19:13:03 10° NNE
BREEZE M DEB (TANK) 2.5 19:00:34 10° W 19:07:57 80° N 19:10:26 12° E
Cosmos 1484 Rocket 4.3 19:06:47 10° SSW 19:10:18 39° W 19:13:50 10° NNW
YAOGAN 1 2.9 19:06:32 10° S 19:10:51 71° WSW 19:15:11 10° NNW
Cosmos 1833 Rocket 4.5 19:06:12 10° WSW 19:11:08 31° NW 19:16:06 10° NNE
GP-B 3.1 19:07:42 10° N 19:12:07 62° E 19:16:31 10° S
ALOS 2.4 19:07:48 10° SE 19:12:19 51° ENE 19:16:51 10° N
Cosmos 1703 3.4 19:10:03 10° N 19:13:54 49° ENE 19:17:42 10° SSE
Landsat 4 4.2 19:12:32 10° N 19:16:15 62° WNW 19:19:55 10° SSW
Abrixas rocket 2.9 19:13:15 10° SW 19:16:21 40° SSE 19:18:42 16° E
FENGYUN 3A 3.7 19:11:47 10° SSE 19:17:03 58° ENE 19:22:22 10° N
CZ-2C R/B 4.1 19:13:20 10° N 19:17:54 69° WNW 19:22:22 10° SSW
CZ-4 R/B 3.0 19:14:19 10° S 19:18:19 42° W 19:22:19 10° NNW
SL-08 R/B 4.4 19:13:55 10° S 19:20:00 64° E 19:26:03 10° NNE
MOS 1 4.5 19:15:01 10° SSE 19:20:41 81° WSW 19:26:25 10° NNW
Cosmos 1400 Rocket 2.7 19:19:03 10° N 19:23:10 77° ENE 19:27:10 10° SSE
Meteor 2-14 Rocket 4.4 19:17:04 10° S 19:23:10 86° E 19:29:17 10° N
Meteor 2-16 Rocket 4.4 19:19:33 10° S 19:25:39 78° E 19:31:48 10° NNE
Cosmos 2219 Rocket 3.2 19:21:13 10° NNW 19:25:57 27° NE 19:29:16 16° E
Cosmos-2242 3.5 19:23:33 10° SSW 19:27:47 63° WNW 19:32:02 10° N
SKYMED 2 3.5 19:25:36 10° NNE 19:29:59 81° ESE 19:34:20 10° SSW
Thor Agena Rocket 4.0 19:25:40 10° NNE 19:30:22 35° E 19:35:00 10° SSE
Meteor 1-28 Rocket 4.2 19:26:50 10° N 19:30:33 50° WNW 19:34:12 10° SSW
USA 234 3.7 19:28:01 15° E 19:33:20 49° NNE 19:39:36 10° WNW
SL-16 R/B 3.4 19:29:56 10° NW 19:35:18 45° WSW 19:40:39 10° S
Cosmos 2237 4.3 19:31:02 10° NNW 19:36:45 61° ENE 19:42:24 10° SE
Cosmos 1743 Rocket 3.8 19:32:29 10° NNW 19:36:52 75° W 19:41:15 10° S
GRACE-2 3.6 19:34:58 10° SSE 19:37:31 58° E 19:40:04 10° N
Cosmos 1420 Rocket 4.1 19:33:11 10° NNW 19:38:29 57° ENE 19:43:41 10° SE
GRACE-1 3.5 19:36:47 10° S 19:39:20 65° E 19:41:56 10° N
Cosmos 2151 3.0 19:35:33 10° N 19:39:52 88° W 19:44:09 10° S
Cosmos 1908 3.7 19:36:42 10° SSE 19:40:21 38° E 19:44:01 10° NNE
Iridium 4 Rocket 3.9 19:37:41 10° SSE 19:42:55 47° E 19:48:29 10° NNE
Envisat 3.9 19:46:16 23° E 19:47:56 27° ENE 19:52:10 10° N
Cosmos 1842 Rocket 3.5 19:43:29 10° S 19:47:59 88° E 19:52:28 10° N
H-2A R/B 2.8 19:44:17 10° SSE 19:48:04 56° ENE 19:51:56 10° N
Resurs 01 Rocket 2.5 19:49:59 26° E 19:50:47 28° ENE 19:54:31 10° N
Cosmos 2237 Rocket 3.3 19:49:17 10° NNW 19:54:02 26° NE 19:55:40 23° ENE
FREGAT/IRIS 2.4 19:56:03 15° SSE 19:58:28 86° ENE 20:01:29 10° NNW
Cosmos 1500 Rocket 4.2 19:54:57 10° NNW 19:59:15 57° W 20:03:29 10° S
Cosmos 2221 2.6 19:55:17 10° S 19:59:28 54° E 20:03:44 10° NNE
Cosmos 2366 rocket 4.5 19:54:34 10° SSW 20:00:45 64° WNW 20:06:54 10° N
SL-16 R/B 3.9 19:58:06 10° N 20:01:42 17° NE 20:02:44 16° NE
CZ-2D R/B 3.7 20:01:43 38° E 20:02:04 39° ENE 20:05:43 10° N
Cosmos 1315 Rocket 3.0 20:00:03 10° NNW 20:04:06 74° W 20:08:10 10° S
Cosmos 921 Rocket 3.2 20:02:18 10° NNW 20:06:48 74° WSW 20:11:11 10° SSE
Resurs 1-3 4.1 20:08:29 37° ENE 20:08:43 37° ENE 20:12:46 10° N
Cosmos 158 Rocket 4.1 20:05:30 10° S 20:10:18 47° ESE 20:15:16 10° NNE
HJ-1C 3.2 20:10:02 41° SSE 20:11:05 79° ENE 20:14:32 10° N
CSL-04 DEB 4.3 20:08:24 18° SSE 20:11:23 78° ENE 20:15:28 10° NNW
COSMOS 2428 2.6 20:07:06 10° NNW 20:12:49 77° ENE 20:16:20 24° SE
Cosmos 2058 4.4 20:10:14 10° NNW 20:14:09 38° W 20:18:01 10° SSW
Cosmos 1461 4.2 20:12:13 10° WSW 20:16:05 38° NW 20:19:40 12° NNE
BREEZE-M DEB (TANK) 3.6 20:14:12 10° SW 20:15:07 23° SW 20:15:07 23° SW
Cosmos 2333 Rocket 2.5 20:10:51 10° NNW 20:16:24 48° NE 20:18:02 38° E
Cosmos 1269 Rocket 4.4 20:11:59 10° S 20:16:52 40° ESE 20:16:59 40° E
Cosmos 1980 4.3 20:11:52 10° NNW 20:17:06 36° NE 20:18:00 34° ENE
COSMO-SKYMED 1 4.3 20:13:59 10° N 20:17:57 35° WNW 20:21:52 10° SW
RESURS DK-1 3.5 20:15:27 10° NW 20:19:22 42° WSW 20:23:04 11° S
Cosmos 2360 Rocket 3.1 20:14:11 10° NW 20:19:36 48° WSW 20:25:00 10° S
Cosmos 1833 4.2 20:17:29 10° SSW 20:23:11 83° WNW 20:28:52 10° NNE
Cosmos 2098 Rocket 3.2 20:19:02 10° S 20:23:19 70° E 20:28:50 10° NNE
Cosmos 2084 4.1 20:21:08 10° NNW 20:24:10 34° NNE 20:24:10 34° NNE
Cosmos 2219 3.5 20:22:49 10° S 20:27:40 42° ESE 20:27:40 42° ESE
Cosmos 468 4.3 20:23:03 10° SSW 20:28:15 76° ESE 20:33:31 10° NNE
MOS 1-B Rocket 3.8 20:25:31 24° SSE 20:29:00 74° ENE 20:35:05 10° NNW
NOSS 0 Rocket 4.0 20:24:54 10° NNW 20:31:01 57° NE 20:32:33 45° ESE
Lacrosse 5 rocket 2.8 20:28:12 10° WNW 20:32:07 30° NNW 20:33:24 25° NNE
SJ-6B 3.3 20:30:52 22° S 20:33:04 55° W 20:36:46 10° NNW
SL-8 R/B 4.1 20:30:03 10° SW 20:34:26 46° SSE 20:34:26 46° SSE
Sich 1 2.8 20:30:34 10° N 20:34:56 77° ENE 20:35:07 75° ESE
Cosmos 1805 Rocket 3.8 20:33:01 10° NNW 20:37:22 68° W 20:39:44 26° S
H-2A R/B 4.3 20:39:41 12° NNE 20:39:41 12° NNE 20:40:34 10° NNE
USA 32 4.5 20:32:57 10° N 20:37:09 43° NE 20:37:09 43° NE
Cosmos 1821 Rocket 3.9 20:32:07 10° S 20:38:16 88° E 20:44:34 10° N
USA 267 3.3 20:37:01 43° E 20:38:50 55° SE 20:45:12 10° SW
ATLAS 5 CENTAUR R/B 4.2 20:39:23 10° NW 20:42:54 17° N 20:45:03 14° NNE
Cosmos 1666 Rocket 3.4 20:41:25 10° N 20:45:46 85° W 20:45:46 85° W
Atlas Centaur 2 4.4 20:44:44 10° SSW 20:46:49 12° S 20:47:12 12° S
Cosmos 2239 Rocket 4.5 20:41:09 10° SSW 20:47:18 80° W 20:53:30 10° N
Cosmos 1934 Rocket 3.9 20:41:13 10° S 20:47:34 81° E 20:53:58 10° N
Spot 2 Rocket 3.3 20:51:35 75° SSE 20:52:01 86° ENE 20:57:08 10° NNW
Gbstr 26 Del rocket 3.7 20:46:56 10° WNW 20:52:08 74° SSW 20:53:04 62° SSE
Abrixas rocket 4.2 20:49:33 10° W 20:51:14 28° W 20:51:14 28° W
Aureole 2 Rocket 3.7 20:49:53 10° NNW 20:52:31 43° NW 20:52:31 43° NW
Cosmos 1633 Rocket 3.4 20:51:31 10° NNW 20:55:16 63° NNW 20:55:16 63° NNW
Cosmos 1110 Rocket 3.9 20:50:50 10° NNW 20:56:06 78° NE 20:56:06 78° NE
CZ-4C R/B 3.6 20:55:36 10° SSW 20:57:35 24° S 20:57:35 24° S
Cosmos 2123 Rocket 4.1 20:55:53 10° NNW 21:02:06 75° W 21:05:32 28° S
Cosmos 2219 Rocket 2.4 21:04:49 10° NNW 21:10:22 65° WSW 21:11:02 60° SSW
BREEZE-M DEB (TANK) 3.8 20:56:15 10° WNW 21:11:03 59° SW 21:11:54 54° S
Cosmos 1605 Rocket 3.8 21:12:12 84° ESE 21:12:18 85° E 21:18:26 10° N
USA 234 3.1 21:15:23 74° ESE 21:16:03 90° ESE 21:22:40 10° NW
Geosat 4.4 21:18:48 57° NNW 21:18:48 57° NNW 21:22:48 10° NNW
Cosmos 1048 Rocket 4.4 21:13:23 10° SW 21:18:26 59° WNW 21:19:10 53° NNW
Envisat 3.8 21:26:29 47° WSW 21:26:43 48° W 21:31:39 10° NNW
Resurs 01 Rocket 3.1 21:27:35 35° W 21:27:35 35° W 21:31:15 10° NNW
Meteor 2-3 Rocket 4.2 21:23:41 10° NNW 21:28:12 56° NNW 21:28:12 56° NNW
Cosmos 2237 Rocket 2.8 21:32:57 10° NNW 21:37:31 55° NW 21:37:31 55° NW
SL-16 R/B 3.4 21:41:19 10° NNW 21:44:37 35° N 21:44:37 35° N
Cosmos 2333 Rocket 3.6 21:55:25 10° NW 22:00:04 33° W 22:00:04 33° W
H-2A R/B 4.4 22:20:20 18° N 22:20:20 18° N 22:21:40 10° NNW
USA 267 4.3 22:24:25 39° W 22:24:25 39° W 22:28:24 10° WSW
CZ-3A R/B 4.1 22:12:49 10° NW 22:27:05 62° WSW 22:27:05 62° WSW
ATLAS 5 CENTAUR R/B 4.4 22:24:34 10° NNW 22:26:35 19° NNW 22:26:35 19° NNW
